CW9533 Torre Faro Messina IT current weather conditions

sailwx.info

Wind from 229 at 3 knots gusting 9

Air temperature 13.3° C
Dewpoint 9.2° C

Last reported at 2020-Jan-21 22:01 UTC.
Time now 2020-Jan-21 22:34 UTC

Location: N 38°16' E 015°39'.
View on Google Maps.

See reports from other nearby stations

  
Tides and Currents Weather Stations Pressure Air Temp Water Temp Dewpoint Dewpoint Depression Visibility Wind Speed Wind Dir Waves Ship Positions
date/time (UTC)wind fromknots sea level pressurealtimeterstation pressurevisibilityair tempwater tempwave heightnotes
2020-Jan-21 22:01 229 3 gusting 9 13.3
2020-Jan-21 21:46 360 2 gusting 13 13.3
2020-Jan-21 21:32 217 3 gusting 9 13.3
2020-Jan-21 21:16 271 2 gusting 10 13.3
2020-Jan-21 21:01 265 3 gusting 7 13.9
2020-Jan-21 20:31 238 2 gusting 8 13.9
2020-Jan-21 20:17 276 2 gusting 7 13.9
2020-Jan-21 20:00 253 0 gusting 5 13.9
2020-Jan-21 19:46 254 0 gusting 6 13.9
2020-Jan-21 19:31 258 13.9
2020-Jan-21 19:16 260 1 gusting 6 13.9
2020-Jan-21 19:01 269 14.4
2020-Jan-21 18:46 254 0 gusting 6 14.4
2020-Jan-21 18:31 262 0 gusting 6 14.4
2020-Jan-21 18:16 238 1 gusting 5 14.4
2020-Jan-21 17:45 259 1 gusting 6 15.0
2020-Jan-21 17:31 250 15.0
2020-Jan-21 17:16 234 0 gusting 6 15.0
2020-Jan-21 17:01 251 0 gusting 3 15.6
2020-Jan-21 16:46 225 15.6
2020-Jan-21 16:30 221 15.6
2020-Jan-21 16:16 011 15.6
2020-Jan-21 16:01 011 15.6
2020-Jan-21 15:45 010 15.6
2020-Jan-21 15:31 011 15.6
2020-Jan-21 15:17 011 15.6
2020-Jan-21 15:01 011 15.6
2020-Jan-21 14:45 011 15.6
2020-Jan-21 14:30 010 15.6
2020-Jan-21 14:16 010 15.6
2020-Jan-21 14:01 011 16.1
2020-Jan-21 13:45 011 16.1
2020-Jan-21 13:33 011 16.1
2020-Jan-21 13:16 011 16.7
2020-Jan-21 13:01 011 16.7
2020-Jan-21 12:47 011 16.7
2020-Jan-21 12:30 011 16.1
2020-Jan-21 12:15 011 16.7
2020-Jan-21 12:00 355 17.2
2020-Jan-21 11:45 355 17.2
2020-Jan-21 11:30 050 17.8
2020-Jan-21 11:15 052 17.8
2020-Jan-21 11:00 052 18.3
2020-Jan-21 10:45 341 18.9
2020-Jan-21 10:30 215 18.9
2020-Jan-21 10:15 207 18.9
2020-Jan-21 10:00 209 17.8
2020-Jan-21 09:45 360 17.2
2020-Jan-21 09:30 360 17.2
2020-Jan-21 09:15 360 17.2
2020-Jan-21 09:00 360 16.7
2020-Jan-21 08:45 360 16.7
2020-Jan-21 08:30 360 16.7
2020-Jan-21 08:15 360 16.7
2020-Jan-21 08:00 360 16.7
2020-Jan-21 07:45 217 16.1
2020-Jan-21 07:30 217 15.0
2020-Jan-21 07:15 228 15.0
2020-Jan-21 07:00 227 15.0
2020-Jan-21 06:32
2020-Jan-21 06:16
2020-Jan-21 06:01
2020-Jan-21 05:47 248 0 gusting 3 14.4
2020-Jan-21 05:32 250 14.4
2020-Jan-21 05:17 360 14.4
2020-Jan-21 05:02 232 3 gusting 7 14.4
2020-Jan-21 04:47 210 1 gusting 12 14.4
2020-Jan-21 04:32 235 4 gusting 12 14.4
2020-Jan-21 04:16 238 5 gusting 13 14.4
2020-Jan-21 04:01 278 4 gusting 12 14.4
2020-Jan-21 03:45 268 2 gusting 10 14.4
2020-Jan-21 03:31 270 1 gusting 10 14.4
2020-Jan-21 03:16 269 2 gusting 8 13.9
2020-Jan-21 03:01 264 13.9
2020-Jan-21 02:47 206 13.3
2020-Jan-21 02:31 206 13.9
2020-Jan-21 02:17 360 15.0
2020-Jan-21 02:01 132 15.6
2020-Jan-21 01:47 133 3 gusting 10 15.6
2020-Jan-21 01:31 207 13.9
2020-Jan-21 01:17 360 13.3
2020-Jan-21 00:46 360 13.3
2020-Jan-21 00:31 250 12.8
2020-Jan-21 00:15 360 13.3
2020-Jan-21 00:01 229 13.3
2020-Jan-20 23:46 229 13.3
2020-Jan-20 23:31 227 13.3
2020-Jan-20 23:15 227 13.9
2020-Jan-20 23:00 227 13.9
2020-Jan-20 22:46 236 13.3
2020-Jan-20 22:31 236 13.9
2020-Jan-20 22:15 236 13.9
2020-Jan-20 22:01 236 13.9
2020-Jan-20 21:46 236 13.9
2020-Jan-20 21:30 236 13.3
2020-Jan-20 21:15 236 13.3
2020-Jan-20 21:00 236 13.3
2020-Jan-20 20:45 236 13.9
2020-Jan-20 20:32 236 13.9
2020-Jan-20 20:16 296 13.9
2020-Jan-20 20:00 298 13.3
2020-Jan-20 19:47 298 13.9
2020-Jan-20 19:30 298 13.9
2020-Jan-20 19:15 298 14.4
2020-Jan-20 19:00 298 14.4
2020-Jan-20 18:45 294 14.4
2020-Jan-20 18:30 229 15.0
2020-Jan-20 18:15 261 14.4
2020-Jan-20 18:00 260 14.4
2020-Jan-20 17:45 272 2 gusting 7 14.4
2020-Jan-20 17:31 250 1 gusting 8 14.4
2020-Jan-20 17:15 275 14.4
2020-Jan-20 17:00 279 15.0
2020-Jan-20 16:46 277 15.0
2020-Jan-20 16:31 281 15.0
2020-Jan-20 16:15 281 15.0
2020-Jan-20 16:00 281 15.6
2020-Jan-20 15:45 281 15.0
2020-Jan-20 15:30 294 15.6
2020-Jan-20 15:16 260 15.6
2020-Jan-20 15:00 256 15.6
2020-Jan-20 14:46 256 15.6
2020-Jan-20 14:31 248 16.1
2020-Jan-20 14:15 225 0 gusting 7 16.1
2020-Jan-20 14:00 276 16.1
2020-Jan-20 13:47 300 0 gusting 6 16.1
2020-Jan-20 13:31 275 0 gusting 9 16.7
2020-Jan-20 13:15 302 0 gusting 6 16.7
2020-Jan-20 13:00 074 16.7
2020-Jan-20 12:46 094 16.7
2020-Jan-20 12:30 063 17.2
2020-Jan-20 12:15 063 16.7
2020-Jan-20 12:00 063 16.7
2020-Jan-20 11:45 051 1 gusting 9 16.7
2020-Jan-20 11:30 089 16.7
2020-Jan-20 11:15 074 0 gusting 6 16.7
2020-Jan-20 11:01 048 15.6
2020-Jan-20 10:45 360 0 gusting 8 15.6
2020-Jan-20 10:30 103 15.6
2020-Jan-20 10:15 060 15.0
2020-Jan-20 10:02 132 0 gusting 8 15.0
2020-Jan-20 09:46 096 0 gusting 9 15.6
2020-Jan-20 09:34 360 0 gusting 7 15.0
2020-Jan-20 09:18 067 15.0
2020-Jan-20 09:01 017 15.0
2020-Jan-20 08:47 307 15.0
2020-Jan-20 08:32 284 14.4
2020-Jan-20 08:16 284 13.9
2020-Jan-20 08:01 284 13.3
2020-Jan-20 07:47 284 13.3
2020-Jan-20 07:31 284 13.3
2020-Jan-20 07:17 283 13.3
2020-Jan-20 07:01 283 12.8
2020-Jan-20 06:46 283 12.2
2020-Jan-20 06:31
2020-Jan-20 06:16
2020-Jan-20 06:01 284 12.2
2020-Jan-20 05:46 284 12.2
2020-Jan-20 05:31 284 12.2
2020-Jan-20 05:15 284 12.2
2020-Jan-20 05:01 284 12.8
2020-Jan-20 04:46 283 12.8
2020-Jan-20 04:32 272 0 gusting 6 12.2
2020-Jan-20 04:16 205 12.2
2020-Jan-20 04:00 205 12.2
2020-Jan-20 03:47 205 12.2
2020-Jan-20 03:30 205 12.2
2020-Jan-20 03:16 205 12.2
2020-Jan-20 03:00 205 12.2
2020-Jan-20 02:46 205 12.8
2020-Jan-20 02:32 205 12.8
2020-Jan-20 02:16 205 12.2
2020-Jan-20 02:01 205 12.2
2020-Jan-20 01:45 205 11.7
2020-Jan-20 01:32 205 12.2
2020-Jan-20 01:15 205 12.2
2020-Jan-20 01:00 205 12.8
2020-Jan-20 00:45 205 12.2
2020-Jan-20 00:30 205 12.2
2020-Jan-20 00:15 205 12.2
2020-Jan-20 00:00 205 11.7
2020-Jan-19 23:45 205 12.2
2020-Jan-19 23:30 205 12.2
2020-Jan-19 23:15 205 12.2
2020-Jan-19 23:00 205 12.8
2020-Jan-19 22:45 205 12.8
2020-Jan-19 22:30 205 13.3
2020-Jan-19 22:15 205 13.3
2020-Jan-19 22:00 205 13.3